Printer-friendly version

IAU Minor Planet Center

Minor Planet Center

24P/Schaumasse

Orbital Elements

The following orbital elements are taken from MPC 56804:
24P/Schaumasse
Epoch 2009 July 28.0 TT = JDT 2455040.5
T 2009 Aug.  9.6270 TT                                  MPC
q   1.213932             (2000.0)            P               Q
n   0.1189043      Peri.   57.9996      -0.7224176      -0.6618944
a   4.095791       Node    79.7183      +0.5457906      -0.7234538
e   0.703615       Incl.   11.7292      +0.4245296      -0.1962407
P   8.29
From 621 observations 1976-2001, mean residual 0".9.  Nongravitational
     parameters A1 = +0.10, A2 = -0.0587.
Elements are also available for the current standard epoch:
24P/Schaumasse
Epoch 2009 June 18.0 TT = JDT 2455000.5
T 2009 Aug.  9.6289 TT                                  MPC
q   1.213924             (2000.0)            P               Q
n   0.1189142      Peri.   58.0011      -0.7224378      -0.6618719
a   4.095564       Node    79.7185      +0.5457679      -0.7234714
e   0.703600       Incl.   11.7293      +0.4245245      -0.1962520
P   8.29
An explanation of the orbital elements is available.

These orbital elements are also available in forms suitable for loading into a number of popular planetarium-type software programs.


Ephemeris

The following ephemeris is at intervals of five days. A daily ephemeris covering the same time interval is also available.

Personalized ephemerides for this (and other) objects may be generated using the Minor Planet & Comet Ephemeris Service.

Recent magnitude estimates for this comet (as reported to the ICQ) may be available.

Date    TT    R. A. (2000) Decl.     Delta      r     Elong.  Phase   m1    m2

WARNING!

This comet gets close to the sun during the period covered in the ephemeris below. Observers are warned to be wary of observing comets near the sun. NEVER point any kind of optical instrument at the sun--instant blindness will be the probable result.

2009 06 08 05 22.81 +23 44.8 2.464 1.454 4.3 3.0 14.2 18.6 2009 06 13 05 39.82 +24 20.3 2.434 1.421 3.5 2.5 13.8 18.5 2009 06 18 05 57.44 +24 49.4 2.404 1.390 3.0 2.2 13.4 18.4 2009 06 23 06 15.64 +25 11.3 2.375 1.361 2.7 2.0 13.1 18.3 2009 06 28 06 34.39 +25 25.1 2.348 1.333 2.6 2.0 12.7 18.2 2009 07 03 06 53.61 +25 30.3 2.323 1.308 2.8 2.2 12.4 18.2 2009 07 08 07 13.25 +25 26.1 2.300 1.286 3.1 2.5 12.1 18.1 2009 07 13 07 33.22 +25 12.0 2.279 1.266 3.5 2.8 11.9 18.1 2009 07 18 07 53.43 +24 47.8 2.262 1.249 3.8 3.1 11.7 18.1 2009 07 23 08 13.79 +24 13.2 2.247 1.236 4.2 3.5 11.5 18.1 2009 07 28 08 34.18 +23 28.3 2.235 1.225 4.6 3.8 11.3 18.0 2009 08 02 08 54.51 +22 33.4 2.226 1.218 4.9 4.1 11.2 18.0 2009 08 07 09 14.68 +21 29.0 2.221 1.214 5.3 4.4 11.2 18.0 2009 08 12 09 34.61 +20 15.8 2.219 1.214 5.5 4.6 11.2 18.1 2009 08 17 09 54.23 +18 54.7 2.221 1.218 5.8 4.8 11.2 18.1 2009 08 22 10 13.47 +17 26.8 2.226 1.225 6.0 5.0 11.3 18.1 2009 08 27 10 32.29 +15 53.1 2.235 1.235 6.2 5.1 11.5 18.1 2009 09 01 10 50.66 +14 14.9 2.246 1.249 6.4 5.1 11.6 18.2 2009 09 06 11 08.55 +12 33.3 2.262 1.265 6.5 5.2 11.8 18.2 2009 09 11 11 25.97 +10 49.5 2.280 1.285 6.6 5.2 12.1 18.3 2009 09 16 11 42.91 +09 04.4 2.301 1.307 6.7 5.1 12.4 18.3 2009 09 21 11 59.38 +07 19.2 2.324 1.332 6.7 5.1 12.7 18.4 2009 09 26 12 15.39 +05 34.7 2.349 1.359 6.8 5.0 13.0 18.4 2009 10 01 12 30.96 +03 51.8 2.377 1.388 7.0 5.0 13.4 18.5 2009 10 06 12 46.10 +02 11.1 2.406 1.420 7.2 5.1 13.7 18.6 2009 10 11 13 00.85 +00 33.1 2.436 1.452 7.6 5.2 14.1 18.7 2009 10 16 13 15.21 -01 01.8 2.467 1.487 8.1 5.4 14.5 18.8 2009 10 21 13 29.21 -02 33.0 2.499 1.522 8.7 5.7 14.9 18.9 2009 10 26 13 42.86 -04 00.3 2.531 1.559 9.5 6.1 15.3 19.0 2009 10 31 13 56.17 -05 23.6 2.562 1.597 10.6 6.5 15.7 19.1 2009 11 05 14 09.16 -06 42.7 2.594 1.635 11.7 7.1 16.0 19.2 2009 11 10 14 21.85 -07 57.5 2.624 1.675 13.1 7.7 16.4 19.3 2009 11 15 14 34.25 -09 08.0 2.654 1.715 14.6 8.4 16.8 19.4 2009 11 20 14 46.35 -10 14.1 2.682 1.755 16.3 9.1 17.2 19.5 2009 11 25 14 58.17 -11 16.0 2.708 1.796 18.1 9.8 17.6 19.6 2009 11 30 15 09.71 -12 13.6 2.732 1.837 20.1 10.6 17.9 19.7 2009 12 05 15 20.96 -13 07.2 2.755 1.879 22.1 11.4 18.3 19.8 2009 12 10 15 31.94 -13 56.7 2.775 1.921 24.3 12.2 18.6 19.9 2009 12 15 15 42.64 -14 42.4 2.792 1.963 26.6 13.0 19.0 20.0 2009 12 20 15 53.05 -15 24.4 2.807 2.005 29.0 13.8 19.3 20.0 2009 12 25 16 03.17 -16 02.8 2.819 2.047 31.5 14.6 19.6 20.1 2009 12 30 16 12.99 -16 37.8 2.828 2.089 34.2 15.3 20.0 20.2 2010 01 04 16 22.51 -17 09.6 2.834 2.131 36.9 16.1 20.3 20.3 2010 01 09 16 31.71 -17 38.3 2.837 2.173 39.7 16.8 20.3 2010 01 14 16 40.58 -18 04.2 2.836 2.215 42.6 17.5 20.4 2010 01 19 16 49.12 -18 27.5 2.833 2.257 45.6 18.2 20.5 2010 01 24 16 57.30 -18 48.4 2.826 2.298 48.7 18.8 20.5 2010 01 29 17 05.11 -19 07.0 2.816 2.340 51.9 19.3 20.6 2010 02 03 17 12.54 -19 23.6 2.802 2.381 55.2 19.9 20.6 2010 02 08 17 19.57 -19 38.4 2.786 2.423 58.6 20.3 20.7 2010 02 13 17 26.18 -19 51.6 2.767 2.464 62.0 20.7 20.7 2010 02 18 17 32.36 -20 03.4 2.745 2.504 65.6 21.1 20.7 2010 02 23 17 38.07 -20 14.1 2.721 2.545 69.3 21.3 20.7 2010 02 28 17 43.30 -20 23.9 2.694 2.586 73.1 21.5 20.8 2010 03 05 17 48.03 -20 32.9 2.665 2.626 77.0 21.6 20.8 2010 03 10 17 52.23 -20 41.5 2.634 2.666 81.0 21.6 20.8 2010 03 15 17 55.88 -20 49.6 2.602 2.706 85.1 21.5 20.8 2010 03 20 17 58.95 -20 57.7 2.569 2.745 89.4 21.3 20.8 2010 03 25 18 01.41 -21 05.7 2.535 2.784 93.8 20.9 20.8 2010 03 30 18 03.26 -21 13.9 2.501 2.823 98.3 20.5 20.8 2010 04 04 18 04.46 -21 22.4 2.467 2.862 102.9 19.9 20.7 2010 04 09 18 05.00 -21 31.3 2.435 2.901 107.7 19.2 20.7 2010 04 14 18 04.86 -21 40.6 2.403 2.939 112.7 18.4 20.7 2010 04 19 18 04.04 -21 50.3 2.374 2.977 117.7 17.4 20.7 2010 04 24 18 02.54 -22 00.4 2.347 3.015 123.0 16.2 20.6 2010 04 29 18 00.38 -22 10.8 2.324 3.052 128.3 15.0 20.6 2010 05 04 17 57.58 -22 21.5 2.305 3.090 133.8 13.6 20.5 2010 05 09 17 54.18 -22 32.1 2.290 3.127 139.5 12.1 20.5 2010 05 14 17 50.24 -22 42.6 2.281 3.163 145.2 10.5 20.5 2010 05 19 17 45.83 -22 52.8 2.277 3.200 151.0 8.8 20.4 2010 05 24 17 41.04 -23 02.4 2.280 3.236 157.0 7.0 20.4 2010 05 29 17 35.97 -23 11.4 2.290 3.272 162.9 5.2 20.3 2010 06 03 17 30.73 -23 19.5 2.307 3.308 168.9 3.4 20.2 2010 06 08 17 25.42 -23 26.7 2.331 3.343 174.9 1.5 20.2 2010 06 13 17 20.16 -23 32.9 2.363 3.379 179.0 0.3 20.1 2010 06 18 17 15.07 -23 38.3 2.403 3.414 173.2 2.0 20.3 2010 06 23 17 10.23 -23 42.9 2.450 3.448 167.3 3.7 20.5 2010 06 28 17 05.75 -23 46.8 2.504 3.483 161.5 5.3 20.6 2010 07 03 17 01.67 -23 50.3 2.565 3.517 155.8 6.8 20.8 2010 07 08 16 58.06 -23 53.5 2.632 3.551 150.2 8.2 20.9 2010 07 13 16 54.95 -23 56.5 2.706 3.585 144.8 9.4 21.1

Back to Observable Comets


Valid HTML 4.01!